(236907) = 2005 GE178 = 2007 TR67

Discovered at Goodricke-Pigott on 2007-10-08 by R. A. Tucker.

Orbit

Orbit type: Main Belt

Note: WebGL enabled browser required.

epoch2024-03-31.0
epoch JD2460400.5
perihelion date2023-02-20.31534
perihelion JD2459995.81535
argument of perihelion (°)221.65215
ascending node (°)188.41986
inclination (°)13.82500
eccentricity0.0814472
perihelion distance (AU)2.6897703
Tisserand w.r.t. Jupiter3.2
ΔV w.r.t. Earth (km/sec)11.1
semimajor axis (AU)2.9282697
mean anomaly (°)79.59838
mean daily motion (°/day)0.19669240
aphelion distance (AU)3.167
period (years)5.01
P-vector [x]0.64464357
P-vector [y]0.74927024
P-vector [z]0.15175235
Q-vector [x]-0.76368213
Q-vector [y]0.64023848
Q-vector [z]0.08297160
absolute magnitude15.79
phase slope0.15
uncertainty0
referenceE2024-GI3
observations used536
oppositions15
arc length (days)7881
first opposition used2002
last opposition used2024
residual rms (arc-secs)0.72
perturbers coarse indicatorM-v
perturbers precise indicator003Ek
first observation date used2002-09-14.0
last observation date used2024-04-12.0
computer nameMPCLINUX
JD of orbit computation2456819.459280
perihelion JD uncertainty (days)2.0892E-04
argument of perihelion uncertainty (°)4.9403E-05
ascending node uncertainty (°)2.1316E-05
inclination uncertainty (°)9.1555E-06
eccentricity uncertainty 7.4312E-08
perihelion distance uncertainty (AU)2.1232E-07
Minimum Orbit Intersection Distances (in AU)
for orbit epoch: 2460400.5, reference: E2024-GI3
Mercury2.37256
Venus1.97314
Earth1.71274
Mars1.25755
Jupiter2.20218
Saturn6.37581
Uranus15.3951
Neptune27.1141

Observations

550 total observations over interval: 2002 09 14.58764 – 2024 02 14.371094
These data are available for download (format description).

Date (UT) J2000 RA J2000 Dec Magn Location Ref
2002 09 14.58764 02 03 01.98 +09 00 02.1 21.4   608 – Haleakala-AMOS MPS 223574
2002 09 14.59835 02 03 01.74 +08 59 57.6 20.8   608 – Haleakala-AMOS MPS 223574
2002 09 14.60903 02 03 01.62 +08 59 53.5 21.0   608 – Haleakala-AMOS MPS 223574
2002 10 10.22834 01 50 54.43 +05 20 10.6 19.7   644 – Palomar Mountain/NEAT MPS 223574
2002 10 10.29630 01 50 51.61 +05 19 31.9 19.1   644 – Palomar Mountain/NEAT MPS 223574
2002 10 10.36017 01 50 48.87 +05 18 55.3 19.9   644 – Palomar Mountain/NEAT MPS 223574
2002 10 31.22447 01 36 05.96 +02 08 30.4 19.0 R 699 – Lowell Observatory-LONEOS MPS 223574
2002 10 31.24637 01 36 05.06 +02 08 20.7   699 – Lowell Observatory-LONEOS MPS 223574
2002 10 31.26829 01 36 04.13 +02 08 10.0   699 – Lowell Observatory-LONEOS MPS 223574
2002 10 31.29021 01 36 03.26 +02 07 59.8   699 – Lowell Observatory-LONEOS MPS 223574
2004 01 18.26993 08 49 24.49 -00 47 44.1 19.4   644 – Palomar Mountain/NEAT MPS 223574
2004 01 18.27833 08 49 24.07 -00 47 42.9 19.8 V 703 – Catalina Sky Survey MPS 223574
2004 01 18.29095 08 49 23.58 -00 47 40.9 19.1 V 703 – Catalina Sky Survey MPS 223574
2004 01 18.30271 08 49 22.99 -00 47 37.5 19.4   644 – Palomar Mountain/NEAT MPS 223574
2004 01 18.30354 08 49 22.90 -00 47 37.4 19.0 V 703 – Catalina Sky Survey MPS 223574
2004 01 18.31610 08 49 22.32 -00 47 35.4 20.3 V 703 – Catalina Sky Survey MPS 223574
2004 01 18.32395 08 49 22.00 -00 47 33.5 19.5   644 – Palomar Mountain/NEAT MPS 223574
2005 04 07.36410 14 23 42.26 -06 28 51.6 19.8 V 691 – Steward Observatory, Kitt Peak-Spacewatch MPS 223574
2005 04 07.38195 14 23 41.59 -06 28 44.6 20.2 V 691 – Steward Observatory, Kitt Peak-Spacewatch MPS 223574
2005 04 07.39993 14 23 40.85 -06 28 36.5 19.9 V 691 – Steward Observatory, Kitt Peak-Spacewatch MPS 223574
2005 04 15.35431 14 18 21.58 -05 27 22.4 20.1 V 691 – Steward Observatory, Kitt Peak-Spacewatch MPS 132718
2005 04 15.36175 14 18 21.26 -05 27 19.1 20.1 V 691 – Steward Observatory, Kitt Peak-Spacewatch MPS 132718
2005 04 15.36916 14 18 20.93 -05 27 15.4 20.2 V 691 – Steward Observatory, Kitt Peak-Spacewatch MPS 132718
2005 04 17.24442 14 17 01.32 -05 12 53.2 20.3 V 691 – Steward Observatory, Kitt Peak-Spacewatch MPS 132718
2005 04 17.25755 14 17 00.72 -05 12 47.0 20.0 V 691 – Steward Observatory, Kitt Peak-Spacewatch MPS 132718
2005 04 17.26565 14 17 00.36 -05 12 43.9 19.9 V 691 – Steward Observatory, Kitt Peak-Spacewatch MPS 132718
2007 09 12.40550 01 53 06.32 +08 57 20.7 20.6 V G96 – Mt. Lemmon Survey MPS 223574
2007 09 12.41230 01 53 06.21 +08 57 18.0 20.5 V G96 – Mt. Lemmon Survey MPS 223574
2007 09 12.41915 01 53 06.14 +08 57 15.1 20.1 V G96 – Mt. Lemmon Survey MPS 223574
2007 09 12.42602 01 53 06.03 +08 57 12.4 20.1 V G96 – Mt. Lemmon Survey MPS 223574
2007 09 16.29641 01 52 06.31 +08 29 30.9 19.4   704 – Lincoln Laboratory ETS, New Mexico MPS 317985
2007 09 16.32020 01 52 05.88 +08 29 21.4 19.6   704 – Lincoln Laboratory ETS, New Mexico MPS 317985
2007 09 16.34370 01 52 05.50 +08 29 10.4 19.8   704 – Lincoln Laboratory ETS, New Mexico MPS 317985
2007 09 18.33638 01 51 26.87 +08 13 59.2 19.5 R 699 – Lowell Observatory-LONEOS MPS 223574
2007 09 18.35832 01 51 26.30 +08 13 47.5   699 – Lowell Observatory-LONEOS MPS 223574
2007 09 18.38026 01 51 25.84 +08 13 38.9   699 – Lowell Observatory-LONEOS MPS 223574
2007 09 18.40220 01 51 25.35 +08 13 28.9   699 – Lowell Observatory-LONEOS MPS 223574
2007 09 21.71255 01 50 09.72 +07 46 58.4 19.6 R D29 – Purple Mountain Observatory, XuYi Station MPS 223574
2007 09 21.72424 01 50 09.41 +07 46 51.7 19.7 R D29 – Purple Mountain Observatory, XuYi Station MPS 223574
2007 09 21.73939 01 50 08.98 +07 46 45.0 19.5 R D29 – Purple Mountain Observatory, XuYi Station MPS 223574
2007 09 21.74928 01 50 08.74 +07 46 40.0 19.2 R D29 – Purple Mountain Observatory, XuYi Station MPS 223574
2007 10 08.28909 01 40 56.22 +05 16 34.1 20.1 R 683 – Goodricke-Pigott Observatory, Tucson MPS 220774
2007 10 08.30250 01 40 55.54 +05 16 25.6 19.5 R 683 – Goodricke-Pigott Observatory, Tucson MPS 220774
2007 10 11.27734 01 38 53.63 +04 47 40.6 20.0 r 699 – Lowell Observatory-LONEOS MPS 220774
2007 10 11.30292 01 38 52.61 +04 47 26.9 19.7 r 699 – Lowell Observatory-LONEOS MPS 220774
2007 10 11.32852 01 38 51.43 +04 47 11.5 19.8 r 699 – Lowell Observatory-LONEOS MPS 220774
2007 10 11.35413 01 38 50.35 +04 46 56.0 19.4 r 699 – Lowell Observatory-LONEOS MPS 220774
2007 10 12.27629 01 38 11.99 +04 38 01.6 19.8 R 683 – Goodricke-Pigott Observatory, Tucson MPS 220774
2007 10 12.28970 01 38 11.42 +04 37 52.8 19.8 R 683 – Goodricke-Pigott Observatory, Tucson MPS 220774
2007 10 12.30306 01 38 10.74 +04 37 44.6 20.9 R 683 – Goodricke-Pigott Observatory, Tucson MPS 220774
2007 10 13.24881 01 37 30.89 +04 28 36.8 19.0   704 – Lincoln Laboratory ETS, New Mexico MPS 317985
2007 10 13.25989 01 37 30.43 +04 28 31.2 18.7   704 – Lincoln Laboratory ETS, New Mexico MPS 317985
2007 10 13.27099 01 37 29.91 +04 28 24.8 19.5   704 – Lincoln Laboratory ETS, New Mexico MPS 317985
2007 10 13.28208 01 37 29.42 +04 28 17.7 18.9   704 – Lincoln Laboratory ETS, New Mexico MPS 317985
2007 10 13.29316 01 37 29.06 +04 28 10.9 20.0   704 – Lincoln Laboratory ETS, New Mexico MPS 317985
2007 10 14.61152 01 36 33.04 +04 15 29.5 18.0 C D35 – Lulin Observatory MPS 220774
2007 10 14.62383 01 36 32.48 +04 15 22.6 18.5 C D35 – Lulin Observatory MPS 220774
2007 10 14.63277 01 36 32.08 +04 15 17.2 18.2 C D35 – Lulin Observatory MPS 220774
2007 10 19.25685 01 33 13.63 +03 31 10.4 19.7   704 – Lincoln Laboratory ETS, New Mexico MPS 222604
2007 10 19.26748 01 33 13.16 +03 31 04.7 20.1   704 – Lincoln Laboratory ETS, New Mexico MPS 222604
2007 10 19.27814 01 33 12.65 +03 30 58.9 19.9   704 – Lincoln Laboratory ETS, New Mexico MPS 222604
2007 10 19.28880 01 33 12.29 +03 30 53.8 19.9   704 – Lincoln Laboratory ETS, New Mexico MPS 222604
2007 10 20.23942 01 32 31.45 +03 21 59.3 18.8 V 703 – Catalina Sky Survey MPS 223574
2007 10 20.24756 01 32 31.02 +03 21 54.8 18.9 V 703 – Catalina Sky Survey MPS 223574
2007 10 20.25573 01 32 30.66 +03 21 50.0 18.8 V 703 – Catalina Sky Survey MPS 223574
2007 10 20.26391 01 32 30.33 +03 21 45.3 18.9 V 703 – Catalina Sky Survey MPS 223574
2007 10 31.23637 01 24 58.75 +01 45 31.0 19.6 V 703 – Catalina Sky Survey MPS 223574
2007 10 31.24313 01 24 58.42 +01 45 29.9 19.9 V 703 – Catalina Sky Survey MPS 223574
2007 10 31.25175 01 24 57.92 +01 45 24.0 19.1 V 703 – Catalina Sky Survey MPS 223574
2007 10 31.25822 01 24 57.74 +01 45 21.3 19.5 V 703 – Catalina Sky Survey MPS 223574
2007 11 04.20197 01 22 32.05 +01 14 46.6 19.9   704 – Lincoln Laboratory ETS, New Mexico MPS 225009
2007 11 04.22600 01 22 31.15 +01 14 36.0 19.9   704 – Lincoln Laboratory ETS, New Mexico MPS 225009
2007 11 04.25007 01 22 30.37 +01 14 26.0 19.3   704 – Lincoln Laboratory ETS, New Mexico MPS 225009
2007 11 07.20587 01 20 49.92 +00 53 19.3 20.0 V 703 – Catalina Sky Survey MPS 225009
2007 11 07.21444 01 20 49.66 +00 53 16.1 19.5 V 703 – Catalina Sky Survey MPS 225009
2007 11 07.22304 01 20 49.41 +00 53 11.4 19.5 V 703 – Catalina Sky Survey MPS 225009
2007 11 07.23162 01 20 49.12 +00 53 09.2 18.7 V 703 – Catalina Sky Survey MPS 225009
2007 11 07.23782 01 20 48.84 +00 53 06.5 19.0 V 703 – Catalina Sky Survey MPS 225009
2007 11 07.24744 01 20 48.51 +00 53 02.3 19.2 V 703 – Catalina Sky Survey MPS 225009
2007 11 07.25704 01 20 48.22 +00 52 57.4 19.5 V 703 – Catalina Sky Survey MPS 225009
2007 11 07.26669 01 20 47.83 +00 52 54.3 19.7 V 703 – Catalina Sky Survey MPS 225009
2007 11 12.20363 01 18 20.29 +00 21 27.8 20.2   704 – Lincoln Laboratory ETS, New Mexico MPS 226955
2007 11 12.21564 01 18 19.89 +00 21 24.7 20.0   704 – Lincoln Laboratory ETS, New Mexico MPS 226955
2007 11 12.22792 01 18 19.63 +00 21 18.5 20.2   704 – Lincoln Laboratory ETS, New Mexico MPS 226955
2007 11 12.24011 01 18 19.25 +00 21 13.2 19.9   704 – Lincoln Laboratory ETS, New Mexico MPS 226955
2008 01 03.09027 01 24 43.16 -00 11 34.5 21.2 V G96 – Mt. Lemmon Survey MPS 232649
2008 01 03.09683 01 24 43.41 -00 11 32.6 20.9 V G96 – Mt. Lemmon Survey MPS 232649
2008 01 03.10339 01 24 43.56 -00 11 32.2 21.6 V G96 – Mt. Lemmon Survey MPS 232649
